Flag for Portugal Weather past 2 weeks in Beja, Portugal

Now
64 °F

Passing clouds.


Feels Like: 64 °F
Forecast: 57 / 76 °F
Wind: 5 mph from Southwest

Location: Beja Airport

Current Time: Sep 23, 2014 at 11:37:10 PM

Latest Report: Sep 23, 2014 at 11:00 PM


Visibility: N/A

Pressure: 29.98 "Hg

Humidity: 94%

Dew point: 63 °F

Location of BejaLocation

Historic Weather in Beja — Graph

°F

Beja temperature yesterday

Maximum temperature yesterday: 75 °F (at 4:00 PM)
Minimum temperature yesterday: 59 °F (at 3:00 AM)
Average temperature yesterday: 66 °F

Past Weeks' High & Low Weather Summary

 TemperatureHumidityPressure
High86 °F (Sep 9, 4:00 PM)100% (Sep 9, 5:00 AM)30.09 "Hg (Sep 9, 5:00 AM)
Low57 °F (Sep 20, 6:00 AM)31% (Sep 9, 4:00 PM)29.68 "Hg (Sep 16, 12:00 PM)
Average69 °F80%29.95 "Hg
* Reported Sep 8 10:00 PM — Sep 23 10:00 PM, Beja, Weather by CustomWeather, © 2014

Note: Actual official high and low records may vary slightly from our data, if they occured in-between our weather recording intervals... More about our weather records

Advertising

Beja weather history for previous 24 hours

 ConditionsComfort  
Time TempWeatherWind HumidityBarometerVisibility
10:00 PM
Sep 23
66 °FThunderstorms. Passing clouds.5 mph88%29.98 "HgN/A
9:00 PM66 °FPassing clouds.1 mph88%29.98 "HgN/A
8:01 PM68 °FThunderstorms. Scattered clouds.5 mph83%29.95 "HgN/A
7:00 PM72 °FScattered showers. Scattered clouds.7 mph73%29.95 "HgN/A
6:00 PM73 °FPassing clouds.10 mph65%29.92 "HgN/A
5:00 PM73 °FScattered showers. Scattered clouds.10 mph65%29.92 "HgN/A
4:00 PM72 °FThunderstorms. Scattered clouds.8 mph73%29.92 "HgN/A
3:01 PM70 °FRain showers. Scattered clouds.13 mph78%29.95 "Hg3 mi
2:00 PM73 °FScattered clouds.10 mph65%29.95 "HgN/A
1:00 PM73 °FScattered clouds.10 mph65%29.98 "HgN/A
12:00 PM70 °FSprinkles. Scattered clouds.10 mph78%29.98 "HgN/A
11:00 AM68 °FScattered clouds.9 mph83%29.98 "HgN/A
10:00 AM66 °FScattered clouds.8 mph88%29.98 "HgN/A
9:00 AM63 °FScattered clouds.13 mph94%29.98 "HgN/A
8:00 AM61 °FPassing clouds.8 mph100%29.98 "HgN/A
7:00 AM61 °FPassing clouds.7 mph100%29.98 "HgN/A
6:00 AM61 °FPassing clouds.8 mph100%29.95 "HgN/A
5:00 AM61 °FPassing clouds.7 mph100%29.95 "HgN/A
4:00 AM61 °FPassing clouds.8 mph100%29.98 "HgN/A
3:00 AM61 °FPassing clouds.7 mph100%29.98 "HgN/A
2:00 AM61 °FPassing clouds.7 mph100%29.98 "HgN/A
1:00 AM63 °FPassing clouds.7 mph94%30.01 "HgN/A
12:00 AM63 °FPassing clouds.7 mph94%30.01 "HgN/A
11:00 PM
Sep 22
64 °FPassing clouds.2 mph88%30.01 "HgN/A
Weather by CustomWeather, © 2014

See weather overviewHow to use our weather pages